TimeEDT,TemperatureF,Dew PointF,Humidity,Sea Level PressureIn,VisibilityMPH,Wind Direction,Wind SpeedMPH,Gust SpeedMPH,PrecipitationIn,Events,Conditions,WindDirDegrees,DateUTC
12:53 AM,66.9,63.0,87,30.10,9.0,Calm,Calm,-,N/A,,Clear,0,2013-06-16 04:53:00
1:53 AM,66.9,63.0,87,30.09,10.0,Calm,Calm,-,N/A,,Clear,0,2013-06-16 05:53:00
2:53 AM,64.9,62.1,90,30.08,8.0,Calm,Calm,-,N/A,,Clear,0,2013-06-16 06:53:00
3:53 AM,63.0,61.0,93,30.08,7.0,Calm,Calm,-,N/A,,Clear,0,2013-06-16 07:53:00
4:53 AM,63.0,61.0,93,30.08,7.0,Calm,Calm,-,N/A,,Clear,0,2013-06-16 08:53:00
5:53 AM,63.0,61.0,93,30.11,9.0,Calm,Calm,-,N/A,,Clear,0,2013-06-16 09:53:00
6:53 AM,63.0,61.0,93,30.12,6.0,Calm,Calm,-,N/A,,Clear,0,2013-06-16 10:53:00
7:53 AM,66.0,63.0,90,30.13,7.0,Calm,Calm,-,N/A,,Partly Cloudy,0,2013-06-16 11:53:00
8:53 AM,72.0,64.9,78,30.14,10.0,Variable,3.5,-,N/A,,Clear,0,2013-06-16 12:53:00
9:53 AM,75.9,66.0,71,30.14,10.0,SW,6.9,-,N/A,,Clear,220,2013-06-16 13:53:00
10:53 AM,79.0,66.9,66,30.12,10.0,SW,8.1,-,N/A,,Clear,220,2013-06-16 14:53:00
11:53 AM,81.0,69.1,67,30.12,10.0,SSW,6.9,-,N/A,,Partly Cloudy,200,2013-06-16 15:53:00
12:53 PM,81.0,69.1,67,30.10,10.0,SSW,6.9,-,N/A,,Mostly Cloudy,200,2013-06-16 16:53:00
1:53 PM,84.0,68.0,58,30.07,10.0,SSW,8.1,-,N/A,,Mostly Cloudy,210,2013-06-16 17:53:00
2:53 PM,84.9,68.0,57,30.06,10.0,SSW,8.1,-,N/A,,Partly Cloudy,200,2013-06-16 18:53:00
3:53 PM,87.1,64.0,46,30.04,10.0,South,5.8,-,N/A,,Partly Cloudy,170,2013-06-16 19:53:00
4:53 PM,86.0,66.9,53,30.03,10.0,SW,6.9,-,N/A,,Overcast,230,2013-06-16 20:53:00
5:53 PM,86.0,66.0,51,30.02,10.0,SSW,6.9,-,N/A,,Partly Cloudy,200,2013-06-16 21:53:00
6:53 PM,84.9,68.0,57,30.01,10.0,South,5.8,-,N/A,,Partly Cloudy,180,2013-06-16 22:53:00
7:53 PM,84.0,68.0,58,30.01,10.0,South,6.9,-,N/A,,Mostly Cloudy,170,2013-06-16 23:53:00
8:53 PM,82.0,69.1,65,30.01,10.0,South,5.8,-,N/A,,Clear,170,2013-06-17 00:53:00
9:53 PM,81.0,70.0,69,30.03,10.0,SSE,4.6,-,N/A,,Partly Cloudy,160,2013-06-17 01:53:00
10:53 PM,80.1,70.0,71,30.03,10.0,SSE,6.9,-,N/A,,Scattered Clouds,150,2013-06-17 02:53:00
11:53 PM,71.1,66.9,87,30.10,2.5,NW,21.9,31.1,0.09,Rain,Heavy Rain,310,2013-06-17 03:53:00
11:55 PM,69.8,66.2,88,30.13,1.5,WNW,18.4,31.1,0.09,Rain,Heavy Rain,300,2013-06-17 03:55:00